Regional Weather Roundup
Issued by NWS

Home | Current Version | Previous Version | Graphics & Text | Print | Product List | Glossary On
Versions: 1 2 3 4 5 6 7 8 9 10 11 12 13 14 15 16 17 18 19 20 21 22 23 24 25 26 27 28 29 30 31 32 33 34 35 36 37 38 39 40 41 42 43 44 45 46 47 48 49 50
000
ASUS43 KLOT 271509
RWRIL

ILLINOIS REGIONAL WEATHER ROUNDUP
NATIONAL WEATHER SERVICE CHICAGO/ROMEOVILLE IL
1000 AM CDT SAT MAY 27 2017

NOTE: "FAIR" INDICATES FEW OR NO CLOUDS BELOW 12,000 FEET WITH NO
SIGNIFICANT WEATHER AND/OR OBSTRUCTIONS TO VISIBILITY.

* THESE STATIONS ARE NOT UNDER NWS QUALITY CONTROL. THEY ALSO MAY NOT
  REPORT WEATHER SUCH AS PRECIPITATION OR FOG.

ILZ001-002-007-009-015-016-024-271600-
NORTHWEST ILLINOIS

CITY           SKY/WX    TMP DP  RH WIND       PRES   REMARKS
MOLINE         CLOUDY    60  57  89 E6        29.92S FOG
STERLING*      CLOUDY    60  59  96 CALM      29.94R FOG
SAVANNA*       CLOUDY    60  57  89 CALM      29.94R FOG
$$

ILZ003-004-008-010-011-017-018-271600-
NORTH CENTRAL ILLINOIS

CITY           SKY/WX    TMP DP  RH WIND       PRES   REMARKS
ROCKFORD       CLOUDY    66  59  78 S5        29.94R
FREEPORT*      CLOUDY    65  60  83 S7        29.95R
ROCHELLE*      MOSUNNY   65  60  84 SE3       29.93S
DE KALB*       CLOUDY    65  60  84 E7        29.93S
PERU*          CLOUDY    63  58  83 CALM      29.93R
$$

ILZ005-006-012>014-019>023-271600-
NORTHEAST ILLINOIS

CITY           SKY/WX    TMP DP  RH WIND       PRES   REMARKS
CHICAGO-OHARE  MOSUNNY   65  53  65 E5        29.92S
CHICAGO-MIDWAY PTSUNNY   67  55  65 E10       29.93R
AURORA         CLOUDY    67  58  72 CALM      29.93S
LANSING*       CLOUDY    64  59  82 NE6       29.93S
JOLIET*        CLOUDY    68  60  76 CALM      29.92S
WAUKEGAN       SUNNY     63  55  75 E8        29.92S
DUPAGE AIRPORT CLOUDY    64  56  75 CALM      29.92S
KANKAKEE*      CLOUDY    68  61  78 CALM      29.91F
WHEELING       SUNNY     63  54  72 E7        29.93F
MORRIS*        CLOUDY    65  60  81 CALM      29.91F
ROMEOVILLE*    CLOUDY    65  60  82 E3        29.92F
$$

LMZ740>746-271600-
SOUTHERN LAKE MICHIGAN

STATION/POSITION SKY/WX   TEMP    WIND        PRES    VSBY  WAVE
                          AIR SEA DIR/SP/G                  HT/PER
                          (F)     (DEG/KT/KT) (MB)    (MI)  (FT/S)
SOUTHERN BUOY              49 47  330/  4/  4 1013.6          0
WILMETTE HARBOR            51 53                N/A           1
HARRISON CRIB              53     330/  6/  7   N/A
BURNHAM HARBOR             61      30/  4/  9   N/A
CALUMET HARBOR             58     350/  4/  5 1013.3R
BURNS HARBOR               54      CALM  /  1 1014.2R
MICHIGAN CITY              55     350/  2/  3   N/A
MICHIGAN CITY 6N           54 54  290/  2/  4   N/A           1
ST. JOSEPH                 56 58   40/  4/  6 1013.6          1
$$

ILZ025>027-034>036-040-047-049-050-058-095>099-271600-
WEST-CENTRAL ILLINOIS

CITY           SKY/WX    TMP DP  RH WIND       PRES   REMARKS
QUINCY         MOSUNNY   68  62  81 E6        29.90R
GALESBURG*     CLOUDY    59  59 100 E5        29.92S FOG
MACOMB*        CLOUDY    61  61 100 E7        29.93F FOG
JACKSONVILLE*  CLOUDY    61  60  97 NE6       29.91R FOG
PITTSFIELD*    CLOUDY    65  62  90 NE7       29.91S
$$

ILZ028>032-037-038-041>044-048-051>054-059>061-271600-
CENTRAL ILLINOIS

CITY           SKY/WX    TMP DP  RH WIND       PRES   REMARKS
PONTIAC        MOSUNNY   65  64  97 NE6       29.92F
BLOOMINGTON    CLOUDY    62  60  93 NE14      29.92S FOG
DECATUR        CLOUDY    67  61  81 NE9       29.90S
PEORIA         CLOUDY    64  60  87 NE7       29.92S
LACON*         CLOUDY    61  59  94 E3        29.92S FOG
LINCOLN*       SUNNY     71  64  78 NE6       29.90R
SPRINGFIELD    CLOUDY    69  63  81 N6        29.91R
TAYLORVILLE    CLOUDY    65  61  86 E5        29.91S
$$

ILZ033-039-045-046-055>057-062-063-271600-
EAST-CENTRAL ILLINOIS

CITY           SKY/WX    TMP DP  RH WIND       PRES   REMARKS
CHAMPAIGN      CLOUDY    63  60  90 N9        29.90S FOG
RANTOUL*       CLOUDY    64  63  97 N9        29.90F FOG
MATTOON        PTSUNNY   69  63  81 VRB3      29.89S
PARIS*         CLOUDY    66  63  90 N7        29.90S
$$

ILZ079-100>102-271600-
SOUTHWEST ILLINOIS

CITY           SKY/WX    TMP DP  RH WIND       PRES   REMARKS
ALTON          MOSUNNY   72  63  73 VRB6      29.89R
CAHOKIA*       SUNNY     79  64  60 NE7       29.87S HX  81
SPARTA*        PTSUNNY   76  67  74 E3        29.89R
$$

ILZ064>066-069>071-074>076-080>082-084>086-088>090-092>094-271600-
SOUTH-CENTRAL ILLINOIS

CITY           SKY/WX    TMP DP  RH WIND       PRES   REMARKS
CARBONDALE     CLOUDY    77  71  82 VRB3      29.87S
CAIRO*         SUNNY     79  70  73 S8        29.88S HX  81
EFFINGHAM*     MOSUNNY   70  66  88 N3        29.92R
MT. VERNON       N/A     77  68  73 NE6       29.88R
CENTRALIA*     SUNNY     77  66  69 CALM      29.87S
SALEM*         SUNNY     77  65  65 N6        29.88S
METROPOLIS*    CLOUDY    79  73  82 SW5       29.90R HX  82
$$

ILZ067-068-072-073-078-083-087-091-271600-
SOUTHEAST ILLINOIS

CITY           SKY/WX    TMP DP  RH WIND       PRES   REMARKS
LAWRENCEVILLE  PTSUNNY   77  68  73 CALM      29.88R
FLORA*         SUNNY     78  66  67 N6        29.89R HX  80
FAIRFIELD*     MOSUNNY   76  67  73 NE3       29.86F
HARRISBURG*    PTSUNNY   77  71  80 CALM      29.89R
ROBINSON*      PTSUNNY   72  65  78 CALM      29.90R
CARMI*         MOSUNNY   77  70  80 CALM      29.87F
$$

ABBREVIATIONS USED IN REMARKS
   TC - TEMPERATURE IN CELSIUS
  WCI - WIND CHILL INDEX
   HX - HEAT INDEX
  VSB - VISIBILITY
$$





USA.gov is the U.S. government's official web portal to all federal, state and local government web resources and services.